Погода в Новоямской Слободе

Россия / Республика Мордовия     54˚44′20″N   43˚43′16″E
темп.,
°C
ветер,
м/с
пор.,
м/с
влажн.,
%
обл.,
%
осадки,
мм/ч
давл.,
гПа
погр.,
м
15 января, пт
пт1500:00−11˚юв3895100 0.3 1008260
03:00−11˚ююв379699 0.5 1009198
06:00−13˚ю239792 0.1 100953
09:00−15˚юз229895 0.1 101128
12:00−11˚ююв129499 0.0 1011128
15:00−11˚ссз1195100 0.0 101163
18:00−10˚св2496100 0.3 1010186
21:00−11˚св3794100 0.6 1007287
16 января, сб
сб1600:00−11˚ссв3695100 2.2 1005337
03:00−12˚ссв51095100 5.8 1002390
06:00−13˚с4995100 4.4 999472
09:00−13˚ссз3695100 7.1 998454
12:00−12˚сз3593100 1.0 999464
15:00−12˚зсз3593100 1.2 1000452
18:00−14˚з369689 0.1 1001145
21:00−16˚з369785 0.1 1003175
17 января, вс
вс1700:00−17˚з369898 0.1 1004122
03:00−18˚з369799 0.1 1006170
06:00−19˚з3698100 0.1 1007200
09:00−19˚з3598100 0.1 1010143
12:00−17˚з249399 0.0 1012388
15:00−17˚зсз249499 0.1 1014168
18:00−22˚ссз129798 0.0 101620
21:00−24˚с229699 0.0 101820
18 января, пн
пн1800:00−25˚ссв129696 0.0 101819
03:00−26˚с229778 0.0 101919
06:00−27˚ссз119833 0.0 101919
09:00−26˚св229767 0.0 102021
12:00−22˚в0193100 0.0 1020157
15:00−21˚св1196100 0.0 102020
18:00−23˚св2296100 0.0 102021
21:00−22˚св1296100 0.0 102080
19 января, вт
вт1900:00−21˚св1395100 0.0 1020139
03:00−20˚св2396100 0.1 1019190
06:00−20˚св2398100 0.1 1019225
09:00−20˚св2398100 0.6 1020211
12:00−18˚св2394100 0.3 1020284
15:00−17˚ссв2394100 0.5 1019298
18:00−19˚св2597100 0.1 1020202
21:00−20˚ссв2396100 0.2 102187